Regional Weather Roundup
Issued by NWS

Home | Current Version | Previous Version | Graphics & Text | Print | Product List | Glossary On
Versions: 1 2 3 4 5 6 7 8 9 10 11 12 13 14 15 16 17 18 19 20 21 22 23 24 25 26 27 28 29 30 31 32 33 34 35 36 37 38 39 40 41 42 43 44 45 46 47 48 49 50
000
ASUS45 KSLC 011410
RWRUT

UTAH REGIONAL WEATHER ROUNDUP
NATIONAL WEATHER SERVICE SALT LAKE CITY UT
700 AM MST SUN MAR 01 2015

UTZ001>011-023>025-011500-

NORTHERN UTAH

CITY           SKY/WX    TMP DP  RH WIND       PRES   REMARKS
BRIGHAM CITY   CLEAR     26  16  66 N7        30.06S WCI  19
HILL AFB       CLOUDY    30  18  61 E16G22    30.03R WCI  19
LOGAN          CLEAR     22  16  78 S3        30.09R
OGDEN          CLEAR     28  21  75 W6        30.03R WCI  22
PROVO AIRPORT  CLOUDY    34  28  80 N6        30.04R WCI  29
SALT LAKE CITY MOCLDY    33  30  88 CALM      30.04R
VERNAL         FLURRIES  30  21  69 NE8       30.06R WCI  22
WENDOVER       CLOUDY    34  18  51 CALM      30.06R
HEBER CITY     CLOUDY    25  23  93 CALM      30.03S
WEST JORDAN    CLOUDY    30  28  93 N3        30.05R

$$

UTZ012>022-026-027-011500-

SOUTHERN/CENTRAL UTAH

CITY           SKY/WX    TMP DP  RH WIND       PRES   REMARKS
BLANDING       CLOUDY    33  32  96 NE3       30.11R
BRYCE CANYON   FLURRIES  20  18  92 CALM      30.00R
CEDAR CITY     CLOUDY    22  20  92 SW7       29.97R WCI  13
DELTA          CLOUDY    33  33 100 CALM      30.02S
HANKSVILLE     CLOUDY    28  28 100 CALM      30.06R
MILFORD        CLOUDY    31  29  92 N8        29.99S WCI  23
MOAB/CYNLANDS  CLEAR     30  29  96 N6        30.01S WCI  24
PRICE          MOCLDY    31  27  85 CALM      30.01R
ST GEORGE      CLOUDY    43  36  75 NE5       30.02R
KANAB          CLOUDY    34  34 100 NW7       30.04S WCI  28

$$

REGIONAL REPORTS     COLORADO/ARIZONA

CITY           SKY/WX    TMP DP  RH WIND       PRES   REMARKS
CRAIG, CO      CLOUDY    20  16  84 SE3       30.09R
GRAND JUNCTION CLOUDY    31  29  92 E7        30.04R WCI  24
RIFLE          CLOUDY    30  27  88 CALM      30.04R
MONTROSE       CLOUDY    29  26  89 SE12      30.06S WCI  19
CORTEZ         LGT SNOW  33  33 100 CALM      30.06R VSB 3/4
PAGE, AZ       LGT RAIN  39  35  86 W5        30.02R
GRAND CANYON   LGT SNOW  32  32 100 SW8       30.00S FOG     WCI  25
KINGMAN        CLOUDY    47  34  60 E3        29.94R
FLAGSTAFF      LGT SNOW  32  30  92 VRB3      30.00R VSB 1

$$

REGIONAL REPORTS    NEVADA/IDAHO/WYOMING

CITY           SKY/WX    TMP DP  RH WIND       PRES   REMARKS
LAS VEGAS, NV  MOCLDY    48  33  56 S6        29.91R
ELY            CLOUDY    26  25  96 N12       29.98S WCI  16
ELKO           CLOUDY    31  18  58 NE7       30.01R WCI  24
POCATELLO, ID  CLEAR     15   5  64 NE8       30.16R WCI   4
BURLEY         CLEAR     21   7  54 E10       30.14R WCI  10
EVANSTON, WY   CLOUDY    18  15  88 E14       30.02R WCI   4
ROCK SPRINGS   PTCLDY     6   2  83 E6        30.10R WCI  -4

$$


USA.gov is the U.S. government's official web portal to all federal, state and local government web resources and services.